Regional Weather Roundup
Issued by NWS Little Rock, AR

Home | Current Version | Previous Version | Text Only | Print | Product List | Glossary Off
Versions: 1 2 3 4 5 6 7 8 9 10 11 12 13 14 15 16 17 18 19 20 21 22 23 24 25 26 27 28

000
ASUS44 KLZK 260305
RWRLZK

WEATHER ROUNDUP FOR ARKANSAS
NATIONAL WEATHER SERVICE LITTLE ROCK AR
1000 PM CDT MON JUL 25 2016

NOTE: "FAIR" INDICATES FEW OR NO CLOUDS BELOW 12,000 FEET WITH NO
SIGNIFICANT WEATHER AND/OR OBSTRUCTIONS TO VISIBILITY.

ARZ001-003-010-029-260400-
NORTHWEST ARKANSAS

CITY           SKY/WX    TMP DP  RH WIND       PRES   REMARKS
FAYETTEVILLE   CLOUDY    77  74  90 NE3       30.03R
FORT SMITH     CLEAR     82  73  74 NE7       29.96R HX  87
HARRISON       MOCLDY    76  73  91 CALM      30.05R
BENTONVILLE    PTCLDY    79  70  73 E7        30.04S
ROGERS         CLEAR     77  73  87 E6        30.05R
SILOAM SPGS    PTCLDY    77  66  69 CALM      30.04R
HIGHFILL       PTCLDY    78  75  90 NE3       30.03R
$$

ARZ004-005-016-260400-
NORTH CENTRAL ARKANSAS

CITY           SKY/WX    TMP DP  RH WIND       PRES   REMARKS
BATESVILLE     CLOUDY    77  72  83 NE3       30.00R
FLIPPIN        PTCLDY    79  70  73 NE3       30.00R
MTN HOME       LGT RAIN  75  71  87 NE3       30.03R
$$

ARZ040-041-260400-
WEST CENTRAL ARKANSAS

CITY           SKY/WX    TMP DP  RH WIND       PRES   REMARKS
MENA           MOCLDY    77  75  94 CALM      30.00S
MOUNT IDA      PTCLDY    77  77 100 CALM      29.97R FOG
$$

ARZ009-017-025-026-028-260400-
NORTHEAST ARKANSAS

CITY           SKY/WX    TMP DP  RH WIND       PRES   REMARKS
CORNING          N/A     81  81 100 NE7       30.00R HX  91
JONESBORO      CLEAR     81  78  91 NE3       29.98R HX  89
NEWPORT        CLEAR     80  79  97 NE3       29.99R HX  86
WALNUT RIDGE   CLEAR     79  75  89 NE6       29.98R
BLYTHEVILLE    CLEAR     80  77  90 CALM      29.98R HX  87
$$

ARZ022-023-033-042-044-260400-
CENTRAL ARKANSAS

CITY           SKY/WX    TMP DP  RH WIND       PRES   REMARKS
LITTLE ROCK    PTCLDY    86  75  69 SE3       29.96R HX  95
N LITTLE ROCK    N/A     85  75  71 CALM      29.94R HX  94
JACKSONVILLE   CLEAR     83  77  82 E2        29.96R HX  91
SEARCY         PTCLDY    81  78  91 CALM      29.98R HX  89
HOT SPRINGS    CLEAR     80  77  90 CALM      29.98R HX  87
RUSSELLVILLE   MOCLDY    81  76  84 CALM      29.96R HX  87
$$

ARZ036-260400-
EAST ARKANSAS

CITY           SKY/WX    TMP DP  RH WIND       PRES   REMARKS
WEST MEMPHIS   CLEAR     81  77  88 E5        29.96R HX  88
$$

ARZ050-053-066-070-073-260400-
SOUTHWEST ARKANSAS

CITY           SKY/WX    TMP DP  RH WIND       PRES   REMARKS
CAMDEN         CLEAR     79  73  83 CALM      29.96R
TEXARKANA      PTCLDY    79  74  84 E5        29.95R
EL DORADO      CLOUDY    80  76  87 CALM      29.96R HX  86
DE QUEEN       CLOUDY    79  77  94 CALM      29.93S
$$

ARZ056-057-069-260400-
SOUTHEAST ARKANSAS

CITY           SKY/WX    TMP DP  RH WIND       PRES   REMARKS
PINE BLUFF     CLEAR     82  77  84 CALM      29.96R HX  90
STUTTGART      CLEAR     86  73  66 CALM      29.97R HX  93
MONTICELLO     CLEAR     81  77  88 CALM      29.96R HX  88

$$






USA.gov is the U.S. government's official web portal to all federal, state and local government web resources and services.